User: anonymous   Login
Location: Unspecified
(0.0000°N, 0.0000°E)
Time: 23:42:23
(UTC+00:00)
Language:

TIMED - Orbit

View from above orbital plane
View from above orbital plane
View from above satellite
View from above satellite

Ground track
Ground track

The orbit data is extracted from the following two-line orbital elements,

1 26998U 01055B   19048.82159076  .00000060  00000-0  10632-4 0  9997
2 26998  74.0725 179.8744 0001203 322.7176  37.3921 14.88085694932300
Epoch (UTC): 17 February 2019 19:43:05
Eccentricity: 0.0001203
inclination: 74.0725°
perigee height: 603 km
apogee height: 605 km
right ascension of ascending node: 179.8744°
argument of perigee: 322.7176°
revolutions per day: 14.88085694
mean anomaly at epoch: 37.3921°
orbit number at epoch: 93230

The dashed part of the orbit path shows where the satellite is in the earth's shadow,  

DLR